Regional Weather Roundup
Issued by NWS

Home | Current Version | Previous Version | Text Only | Print | Product List | Glossary On
Versions: 1 2 3 4 5 6 7 8 9 10 11 12 13 14 15 16 17 18 19 20 21 22 23 24 25 26 27 28 29 30 31 32 33 34 35 36 37 38 39 40 41 42 43 44 45 46 47 48 49 50
000
ASUS45 KPSR 191510
RWRAZ

ARIZONA REGIONAL HOURLY WEATHER ROUNDUP
NATIONAL WEATHER SERVICE PHOENIX AZ
800 AM MST FRI DEC 19 2014

NOTE: FAIR INDICATES FEW OR NO CLOUDS BELOW 12,000 FEET WITH NO
SIGNIFICANT WEATHER AND/OR OBSTRUCTIONS TO VISIBILITY.

AZZ001>003-036-191600-
NORTHWEST ARIZONA

CITY           SKY/WX    TMP DP  RH WIND       PRES   REMARKS
BULLHEAD CITY  SUNNY     43  41  93 S5        30.26R
KINGMAN        SUNNY     29  27  92 CALM      30.23R
$$

AZZ004>008-015-016-018-191600-
NORTH CENTRAL ARIZONA

CITY           SKY/WX    TMP DP  RH WIND       PRES   REMARKS
GRAND CANYON   SUNNY     15  13  91 E3        30.25S
PRESCOTT       SUNNY     25  21  85 S5        30.26R WCI  19
FLAGSTAFF      MOSUNNY   11   7  84 CALM      30.24R
PAYSON         SUNNY     32  25  74 NE5       30.24R WCI  27
PAGE           SUNNY     34  27  75 CALM      30.26R
$$

AZZ009>014-017-191600-
NORTHEAST ARIZONA

CITY           SKY/WX    TMP DP  RH WIND       PRES   REMARKS
WINSLOW        PTSUNNY   24  23  96 SE5       30.28R WCI  18
SAINT JOHNS    CLOUDY    31  31 100 NW3       30.26R
WINDOW ROCK    SUNNY     19  14  81 S3        30.24R
SHOW LOW       CLOUDY    25  23  93 NE5       30.27R WCI  19
$$

AZZ023-191600-
GREATER PHOENIX AREA

CITY           SKY/WX    TMP DP  RH WIND       PRES   REMARKS
PHOENIX        MOSUNNY   45  41  86 E6        30.21R
BUCKEYE          N/A     39  39 100 CALM      30.23R
GLENDALE       MOSUNNY   43  43 100 NW3       30.23R
LUKE AFB       SUNNY     41  41 100 N7        30.21R FOG
DEER VALLEY    SUNNY     44  37  76 CALM      30.21R
SCOTTSDALE     SUNNY     44  40  85 CALM      30.22R
MESA-GATEWAY   MOSUNNY   37  37 100 E6        30.23R WCI  33
CHANDLER       MOSUNNY   41  39  93 CALM      30.22R
$$

AZZ027-028-191600-
SOUTHWEST MARICOPA COUNTY AND PINAL COUNTY

CITY           SKY/WX    TMP DP  RH WIND       PRES   REMARKS
CASA GRANDE    MOSUNNY   39  37  93 CALM      30.22R
GILA BEND      MOSUNNY   44  42  92 E2        30.23R
$$

AZZ503-504-507>509-191600-
SOUTHEAST ARIZONA

CITY           SKY/WX    TMP DP  RH WIND       PRES   REMARKS
TUCSON         SUNNY     38  35  89 SE5       30.23R WCI  34
DAVIS-MONTHAN  SUNNY     38  37  93 SE2       30.20R
RYAN FIELD       N/A     37  37 100 CALM      30.23R
NOGALES        MOSUNNY   32  32 100 CALM      30.19R
SIERRA VISTA   MOSUNNY   34  30  86 CALM      30.20R
DOUGLAS        MOSUNNY   25  23  92 CALM      30.21R
SAFFORD        CLOUDY    35  33  92 E5        30.23R WCI  31
$$

AZZ020-021-025-026-031-191600-
SOUTHWEST ARIZONA

CITY           SKY/WX    TMP DP  RH WIND       PRES   REMARKS
YUMA           MOSUNNY  N/A N/A N/A NE5       30.22R
$$

CAZ031-033-041-043-047-048-061-191600-
SOUTHERN CALIFORNIA

CITY           SKY/WX    TMP DP  RH WIND       PRES   REMARKS
DOWNTOWN L.A.  SUNNY     50  44  80 CALM      30.22S
L.A. AIRPORT   MOSUNNY   50  45  83 CALM      30.23R
SAN DIEGO      PTSUNNY   53  45  74 CALM      30.24R
BURBANK        SUNNY     46  42  86 CALM      30.22R
ONTARIO        MOSUNNY   47  40  76 CALM      30.21F
RIVERSIDE      MOSUNNY   44  40  85 NE5       30.22S
PALM SPRINGS   MOSUNNY   50  40  68 NW6       30.25R
EL CENTRO NAS  PTSUNNY   44  40  85 W7        30.23R
IMPERIAL       PTSUNNY   43  40  89 W6        30.23R
BLYTHE         SUNNY     44  39  82 W7        30.24R
NEEDLES        MOSUNNY   43  37  79 W5        30.25R
$$

NVZ020-UTZ003-191600-
SOUTHERN NEVADA-UTAH

CITY           SKY/WX    TMP DP  RH WIND       PRES   REMARKS
LAS VEGAS      PTSUNNY   42  35  76 SW8       30.20S
SALT LAKE CITY PTSUNNY   32  27  81 SE9       30.19S WCI  24
$$

NMZ009-TXZ055-191600-
NEW MEXICO-WEST TEXAS

CITY           SKY/WX    TMP DP  RH WIND       PRES   REMARKS
ALBUQUERQUE    MOSUNNY   34  25  69 N5        30.22R WCI  30
EL PASO        MOSUNNY   38  36  92 SW5       30.19R WCI  34
$$


........................KEY........................
SKY/WX - SKY CONDITION/WEATHER
TMP    - TEMPERATURE IN FAHRENHEIT
DP     - DEW POINT IN FAHRENHEIT
RH     - RELATIVE HUMIDITY IN PERCENT
WIND   - DIRECTION AND SPEED IN MILES PER HOUR (MPH)
VRB    - VARIABLE WIND DIRECTION
PRES   - MEAN SEA LEVEL PRESSURE IN INCHES OF MERCURY
         F - FALLING PRESSURE   R - RISING PRESSURE
         S - STEADY PRESSURE
VSB    - VISIBILITY IN MILES
HX     - HEAT INDEX IN FAHRENHEIT
WCI    - WIND CHILL INDEX IN FAHRENHEIT
TC     - TEMPERATURE IN CELSIUS WHICH IS ALSO KNOWN AS
         TEMPERATURE IN CENTIGRADE
AFB    - AIR FORCE BASE
         LUKE AFB IS LUKE AIR FORCE BASE
         DAVIS-MONTHAN IS DAVIS-MONTHAN AIR FORCE BASE
NAS    - NAVAL AIR STATION
         EL CENTRO NAS IS EL CENTRO NAVAL AIR STATION
N/A    - NOT AVAILABLE



USA.gov is the U.S. government's official web portal to all federal, state and local government web resources and services.